Inquirer Daily News

Weather

Get conditions and forecasts for any City, State, ZIP code or Country:  
Trenton, NJ
on Wednesday, January 2, 2013

Wednesday
Previous Day Next Day
Daily Summary
 ActualAverageRecord
Temperature
Mean Temperature °F 31°F  
Max Temperature 33°F 39°F 68°F (1876)
Min Temperature 23°F 23°F 3°F (1918)
Degree Days
Heating Degree Days 37 34  
Month to date heating degree days 67 67  
Since 1 July heating degree days 1825 1962  
Cooling Degree Days 0 0  
Month to date cooling degree days 0 0  
Year to date cooling degree days 0 0  
Moisture
Dew Point 14°F   
Average Humidity 52    
Maximum Humidity 60    
Minimum Humidity 43    
Precipitation
Precipitation 0.00 in 0.11 in 1.98 in (1892)
Month to date precipitation 0.00 0.22  
Year to date precipitation 0.00 0.22  
Snow
Snow 0.00 in in in ()
Snow Depth in   
Wind
Wind Speed 6 mph   
Max Wind Speed 15 mph   
Max Gust Speed 22 mph   
Visibility 10 miles   
Events     

Key: T is trace of precipitation, MM is missing value
Source: NWS Daily Summary
Time(EST)TemperatureDew PointHumidity Pressure Visibility Wind DirectionWind SpeedGust SpeedPrecipitationEvents Conditions
12:53 AM 27.0°F 14.0°F 58% 29.99 in 10.0 miles North 5.8 mph - N/A   Clear
1:53 AM 27.0°F 12.9°F 56% 30.00 in 10.0 miles North 5.8 mph - N/A   Clear
2:53 AM 26.1°F 12.9°F 58% 30.01 in 10.0 miles North 5.8 mph - N/A   Clear
3:53 AM 25.0°F 12.9°F 60% 30.00 in 10.0 miles North 10.4 mph - N/A   Clear
4:53 AM 25.0°F 12.0°F 58% 30.01 in 10.0 miles NNE 5.8 mph - N/A   Clear
5:53 AM 24.1°F 12.0°F 60% 30.02 in 10.0 miles NNE 4.6 mph - N/A   Clear
6:53 AM 24.1°F 12.0°F 60% 30.03 in 10.0 miles Calm Calm - N/A   Clear
7:53 AM 24.1°F 12.0°F 60% 30.05 in 10.0 miles Calm Calm - N/A   Clear
8:53 AM 25.0°F 12.9°F 60% 30.07 in 10.0 miles WNW 3.5 mph - N/A   Clear
10:53 AM 28.9°F 14.0°F 54% 30.08 in 10.0 miles NNW 8.1 mph - N/A   Clear
11:53 AM 30.9°F 15.1°F 52% 30.05 in 10.0 miles North 10.4 mph 19.6 mph N/A   Mostly Cloudy
12:53 PM 30.9°F 15.1°F 52% 30.04 in 10.0 miles NW 11.5 mph - N/A   Clear
1:53 PM 32.0°F 15.1°F 50% 30.04 in 10.0 miles NW 8.1 mph 19.6 mph N/A   Partly Cloudy
2:53 PM 33.1°F 15.1°F 48% 30.06 in 10.0 miles NNW 10.4 mph - N/A   Clear
3:53 PM 32.0°F 12.9°F 45% 30.08 in 10.0 miles North 8.1 mph - N/A   Clear
4:53 PM 30.0°F 12.9°F 49% 30.09 in 10.0 miles NW 5.8 mph - N/A   Clear
5:53 PM 30.0°F 14.0°F 51% 30.12 in 10.0 miles Calm Calm - N/A   Clear
6:53 PM 28.0°F 14.0°F 56% 30.13 in 10.0 miles WNW 4.6 mph - N/A   Clear
7:53 PM 28.0°F 14.0°F 56% 30.15 in 10.0 miles West 3.5 mph - N/A   Clear
8:53 PM 27.0°F 14.0°F 58% 30.14 in 10.0 miles WNW 4.6 mph - N/A   Clear
9:53 PM 27.0°F 14.0°F 58% 30.16 in 10.0 miles NW 4.6 mph - N/A   Clear
10:53 PM 26.1°F 14.0°F 60% 30.17 in 10.0 miles NW 4.6 mph - N/A   Clear
11:53 PM 26.1°F 14.0°F 60% 30.18 in 10.0 miles NW 3.5 mph - N/A   Clear
Astronomy
Sunrise:07:22 AM (EST) Moon Rise:10:15 PM (EST)1/2
Sunset:04:45 PM (EST) Moon Set:10:02 AM (EST)1/2
Moon Phase
Jan. 02 Jan. 04 Jan. 11 Jan. 18 Jan. 26

Copyright © 2014 The Weather Underground, Inc.